GW2923 Weather Reports


Display with metric or nautical units.
time (UTC)temp
F
wind
direction
speed
MPH
gust
MPH
rain 1hr
in
rain 24hr
in
rain mn
in
humidity
%
barometer
mb
20260506080534 45 256 10.0 18.0 0.00 0.00 0.00 51 1009.9
20260506073045 43 276 9.0 18.0 0.00 0.00 0.00 54 1009.5
20260506072530 44 278 9.0 17.0 0.00 0.00 0.00 57 1009.5
20260506072029 43 238 9.0 17.0 0.00 0.00 0.00 58 1009.5
20260506071545 43 254 10.0 19.0 0.00 0.00 0.00 55 1009.5
20260506071031 42 282 12.0 19.0 0.00 0.00 0.00 58 1009.4
20260506070532 41 261 11.0 19.0 0.00 0.00 0.00 60 1009.5
20260506062029 41 257 11.0 18.0 0.00 0.00 0.00 61 1009.1
20260506061539 41 297 9.0 20.0 0.00 0.00 0.00 64 1009.0
20260506061029 40 249 11.0 20.0 0.00 0.00 0.00 63 1008.9
20260506060532 40 278 12.0 20.0 0.00 0.00 0.00 64 1008.9
20260506051029 38 259 10.0 16.0 0.00 0.00 0.00 71 1008.5
20260506050530 38 288 10.0 16.0 0.00 0.00 0.00 72 1008.6
20260506045030 38 258 7.0 14.0 0.00 0.00 0.00 75 1008.5
20260506044622 37 266 6.0 14.0 0.00 0.00 0.00 75 1008.5
20260506044035 37 245 9.0 16.0 0.00 0.00 0.00 75 1008.3
20260506043533 37 261 6.0 16.0 0.00 0.00 0.00 76 1008.3
20260506043043 36 261 10.0 16.0 0.00 0.00 0.00 77 1008.2
20260506042533 36 259 5.0 10.0 0.00 0.00 0.00 78 1008.2
20260506042032 35 238 4.0 9.0 0.00 0.00 0.00 78 1008.2
20260506041559 35 238 4.0 10.0 0.00 0.00 0.00 79 1008.2
20260506041034 35 214 5.0 10.0 0.00 0.00 0.00 78 1008.2
20260506040536 34 236 5.0 10.0 0.00 0.00 0.00 79 1008.1
20260506040050 34 216 5.0 10.0 0.00 0.00 0.00 80 1008.1
20260506035535 33 242 5.0 10.0 0.00 0.00 0.00 81 1008.0
20260506035033 33 251 4.0 9.0 0.00 0.00 0.00 81 1007.9
20260506034605 33 240 4.0 9.0 0.00 0.00 0.00 82 1007.9
20260506034033 32 251 5.0 9.0 0.00 0.00 0.00 82 1007.9
20260506033533 32 253 4.0 9.0 0.00 0.00 0.00 82 1007.8
20260506033049 32 224 4.0 9.0 0.00 0.00 0.00 82 1007.7
20260506032533 31 237 4.0 8.0 0.00 0.00 0.00 83 1007.8
20260506032033 31 249 4.0 9.0 0.00 0.00 0.00 83 1007.7
20260506031542 31 238 4.0 10.0 0.00 0.00 0.00 83 1007.6
20260506031033 31 260 4.0 10.0 0.00 0.00 0.00 83 1007.5
20260506030534 31 260 4.0 8.0 0.00 0.00 0.00 83 1007.5
20260506030048 31 240 3.0 8.0 0.00 0.00 0.00 83 1007.4
20260506025534 31 252 4.0 9.0 0.00 0.00 0.00 83 1007.4
20260506025033 31 249 4.0 9.0 0.00 0.00 0.00 84 1007.4
20260506024542 31 236 4.0 9.0 0.00 0.00 0.00 84 1007.3
20260506024034 31 244 4.0 9.0 0.00 0.00 0.00 84 1007.2
20260506023534 31 221 3.0 10.0 0.00 0.00 0.00 85 1007.3
20260506023104 30 238 5.0 10.0 0.00 0.00 0.00 85 1007.2
20260506022533 30 234 4.0 9.0 0.00 0.00 0.00 85 1007.2
20260506022033 30 232 4.0 8.0 0.00 0.00 0.00 84 1007.2
20260506021546 30 253 2.0 5.0 0.00 0.00 0.00 84 1007.2
20260506021034 30 247 2.0 6.0 0.00 0.00 0.00 84 1007.1
20260506020535 30 235 3.0 8.0 0.00 0.00 0.00 84 1007.1
20260506020046 30 246 3.0 8.0 0.00 0.00 0.00 84 1007.0
20260506015535 30 249 3.0 8.0 0.00 0.01 0.00 84 1007.0
20260506015036 30 253 2.0 8.0 0.00 0.01 0.00 84 1007.0
20260506014540 30 239 3.0 8.0 0.00 0.01 0.00 84 1007.0
20260506014036 31 245 2.0 7.0 0.00 0.01 0.00 84 1006.9
20260506013534 31 234 3.0 7.0 0.00 0.01 0.00 84 1006.8
20260506013041 31 211 3.0 7.0 0.00 0.01 0.00 83 1006.7
20260506012529 31 251 2.0 8.0 0.00 0.01 0.00 83 1006.7
20260506012030 31 249 3.0 8.0 0.00 0.01 0.00 83 1006.7
20260506011537 31 247 3.0 8.0 0.00 0.01 0.00 83 1006.7
20260506011029 31 230 4.0 7.0 0.00 0.01 0.00 83 1006.7
20260506010533 31 233 3.0 7.0 0.00 0.01 0.00 83 1006.6
20260506010051 31 225 3.0 7.0 0.00 0.01 0.00 83 1006.6
20260506005533 31 231 2.0 7.0 0.00 0.01 0.00 82 1006.5
20260506005029 32 228 3.0 7.0 0.00 0.01 0.00 83 1006.5
20260506004600 32 242 3.0 8.0 0.00 0.01 0.00 83 1006.4
20260506004030 32 250 3.0 8.0 0.00 0.01 0.00 83 1006.4
20260506003535 32 242 3.0 8.0 0.00 0.01 0.00 83 1006.4
20260506003051 32 259 3.0 8.0 0.00 0.01 0.00 83 1006.4
20260506002529 32 236 3.0 8.0 0.00 0.01 0.00 82 1006.2
20260506002030 32 240 4.0 8.0 0.00 0.01 0.00 82 1006.2
20260506001541 32 249 3.0 8.0 0.00 0.01 0.00 82 1006.2
20260506001030 32 243 4.0 7.0 0.00 0.01 0.00 83 1006.1
20260506000530 32 244 4.0 7.0 0.00 0.01 0.00 82 1006.1
20260506000040 32 252 3.0 8.0 0.00 0.01 0.00 82 1006.0
20260505235530 32 242 4.0 8.0 0.00 0.01 0.00 82 1006.0
20260505235033 32 243 3.0 7.0 0.00 0.01 0.00 82 1006.0
20260505234558 33 249 2.0 7.0 0.00 0.01 0.00 81 1005.9
20260505234032 33 243 2.0 5.0 0.00 0.01 0.00 81 1005.9
20260505233532 33 247 2.0 7.0 0.00 0.01 0.00 81 1005.8
20260505233041 33 232 3.0 8.0 0.00 0.01 0.00 81 1005.8
20260505232530 33 260 3.0 9.0 0.00 0.01 0.00 82 1005.8
20260505232032 33 244 4.0 9.0 0.00 0.01 0.00 82 1005.6
20260505231541 33 222 4.0 9.0 0.00 0.01 0.00 82 1005.7
20260505231030 33 243 4.0 9.0 0.00 0.01 0.00 82 1005.7
20260505230530 33 249 5.0 11.0 0.00 0.01 0.00 82 1005.7
20260505230043 33 224 4.0 11.0 0.00 0.01 0.00 82 1005.6
20260505225530 33 227 7.0 11.0 0.00 0.01 0.00 83 1005.6
20260505225036 34 227 4.0 9.0 0.00 0.01 0.00 82 1005.6
20260505224541 34 232 5.0 10.0 0.00 0.01 0.00 82 1005.6
20260505224033 34 221 5.0 10.0 0.00 0.01 0.00 82 1005.6
20260505223530 34 232 4.0 9.0 0.00 0.01 0.00 82 1005.6
20260505223044 34 229 3.0 9.0 0.00 0.01 0.00 82 1005.6
20260505222530 34 241 4.0 8.0 0.00 0.01 0.00 82 1005.6
20260505222032 34 237 5.0 8.0 0.00 0.01 0.00 81 1005.5
20260505221540 34 232 3.0 7.0 0.00 0.01 0.00 81 1005.5
20260505221029 34 229 4.0 7.0 0.00 0.01 0.00 81 1005.5
20260505220531 34 250 2.0 7.0 0.00 0.01 0.00 81 1005.5
20260505220055 34 254 3.0 8.0 0.00 0.01 0.00 81 1005.5
20260505215531 34 254 4.0 8.0 0.00 0.01 0.00 81 1005.6
20260505215031 34 255 3.0 8.0 0.00 0.01 0.00 81 1005.5
20260505214540 34 220 3.0 10.0 0.00 0.01 0.00 81 1005.5
20260505214030 34 233 5.0 10.0 0.00 0.01 0.00 81 1005.5
20260505213530 34 234 4.0 9.0 0.00 0.01 0.00 80 1005.5
20260505213046 34 253 6.0 13.0 0.00 0.01 0.00 80 1005.4
20260505212533 34 205 6.0 13.0 0.00 0.01 0.00 80 1005.4
20260505212031 34 228 5.0 10.0 0.00 0.01 0.00 80 1005.4
20260505211548 34 232 4.0 10.0 0.00 0.01 0.00 79 1005.3
20260505211033 35 228 5.0 9.0 0.00 0.01 0.00 79 1005.3
20260505210532 35 243 5.0 10.0 0.00 0.01 0.00 79 1005.4
20260505210041 35 220 5.0 10.0 0.00 0.01 0.00 79 1005.3
20260505205533 35 209 6.0 11.0 0.00 0.01 0.01 79 1005.3
20260505205034 35 253 4.0 11.0 0.00 0.01 0.01 78 1005.3
20260505204550 35 245 6.0 11.0 0.00 0.01 0.01 78 1005.2
20260505204030 35 207 4.0 12.0 0.00 0.01 0.01 78 1005.3
20260505203532 35 218 7.0 12.0 0.00 0.01 0.01 78 1005.3
20260505203039 35 226 6.0 10.0 0.00 0.01 0.01 77 1005.3
20260505202530 35 209 4.0 8.0 0.00 0.01 0.01 77 1005.2
20260505202032 35 232 5.0 8.0 0.00 0.01 0.01 77 1005.1
20260505201544 35 212 5.0 8.0 0.00 0.01 0.01 77 1005.1
20260505201033 35 229 5.0 8.0 0.00 0.01 0.01 77 1005.2
20260505200532 35 222 5.0 8.0 0.00 0.01 0.01 76 1005.1
20260505200041 35 228 4.0 7.0 0.00 0.01 0.01 76 1005.2
20260505195532 36 215 3.0 7.0 0.00 0.01 0.01 75 1005.1
20260505195032 36 248 3.0 7.0 0.00 0.01 0.01 75 1005.1
20260505194545 36 225 3.0 5.0 0.00 0.01 0.01 74 1005.1
20260505194031 36 220 3.0 7.0 0.00 0.01 0.01 73 1005.0
20260505193530 36 230 3.0 9.0 0.00 0.01 0.01 73 1005.1
20260505193045 37 214 5.0 9.0 0.00 0.01 0.01 73 1005.0
20260505192531 37 217 4.0 9.0 0.00 0.01 0.01 72 1005.0
20260505192033 37 214 5.0 9.0 0.00 0.01 0.01 72 1005.0
20260505191551 37 230 5.0 9.0 0.00 0.01 0.01 73 1005.0
20260505191032 37 226 5.0 9.0 0.00 0.01 0.01 72 1005.0
20260505190529 37 225 5.0 7.0 0.00 0.01 0.01 71 1005.0
20260505190042 37 218 5.0 7.0 0.00 0.01 0.01 70 1004.9
20260505185530 38 227 3.0 10.0 0.00 0.01 0.01 70 1004.9
20260505185032 38 229 4.0 10.0 0.00 0.01 0.01 70 1004.9
20260505184543 38 226 4.0 10.0 0.00 0.01 0.01 70 1004.8
20260505184029 38 259 3.0 8.0 0.00 0.01 0.01 69 1005.0
20260505183529 38 229 4.0 8.0 0.00 0.01 0.01 69 1004.9
20260505183041 38 209 4.0 8.0 0.00 0.01 0.01 67 1004.8
20260505182529 39 227 3.0 8.0 0.00 0.01 0.01 66 1004.7
20260505182029 39 251 5.0 7.0 0.00 0.01 0.01 64 1004.8
20260505181540 40 255 4.0 10.0 0.00 0.01 0.01 63 1004.8
20260505181030 40 238 5.0 15.0 0.00 0.01 0.01 62 1004.8
20260505180533 41 234 7.0 15.0 0.00 0.01 0.01 61 1004.8
20260505180048 41 231 5.0 13.0 0.00 0.01 0.01 60 1004.7
20260505175532 41 257 6.0 13.0 0.00 0.03 0.01 59 1004.7
20260505175035 42 229 6.0 12.0 0.00 0.03 0.01 58 1004.7
20260505174605 42 236 7.0 13.0 0.00 0.03 0.01 57 1004.6
20260505174033 42 264 7.0 13.0 0.00 0.03 0.01 56 1004.6
20260505173534 42 245 6.0 12.0 0.00 0.03 0.01 56 1004.6
20260505173044 42 268 6.0 16.0 0.00 0.03 0.01 55 1004.5
20260505172532 43 226 7.0 16.0 0.00 0.03 0.01 54 1004.6
20260505172029 43 252 8.0 15.0 0.00 0.03 0.01 53 1004.6
20260505171540 43 255 8.0 16.0 0.00 0.03 0.01 52 1004.6
20260505171031 43 257 8.0 17.0 0.00 0.03 0.01 51 1004.6
20260505170530 44 243 10.0 17.0 0.00 0.03 0.01 51 1004.6
20260505170050 44 264 9.0 15.0 0.00 0.03 0.01 51 1004.5
20260505165531 44 241 7.0 15.0 0.00 0.03 0.01 51 1004.5
20260505165033 44 255 6.0 15.0 0.00 0.03 0.01 51 1004.5
20260505164543 44 261 9.0 15.0 0.00 0.03 0.01 50 1004.4
20260505164030 44 250 9.0 16.0 0.00 0.03 0.01 50 1004.4
20260505163533 45 242 8.0 16.0 0.00 0.03 0.01 49 1004.3
20260505163044 45 263 7.0 17.0 0.00 0.03 0.01 50 1004.4
20260505162529 45 241 9.0 17.0 0.00 0.03 0.01 50 1004.3
20260505162030 46 261 9.0 17.0 0.00 0.03 0.01 48 1004.2
20260505161543 46 249 9.0 17.0 0.00 0.03 0.01 49 1004.2
20260505161032 46 273 7.0 16.0 0.00 0.03 0.01 48 1004.2
20260505160533 46 263 8.0 16.0 0.00 0.03 0.01 48 1004.2
20260505153053 46 274 12.0 17.0 0.00 0.03 0.01 44 1004.0
20260505152529 46 268 11.0 17.0 0.00 0.03 0.01 44 1003.9
20260505152030 47 291 9.0 20.0 0.00 0.03 0.01 44 1004.0
20260505151546 47 276 10.0 20.0 0.00 0.03 0.01 44 1003.9
20260505151029 47 280 11.0 20.0 0.00 0.03 0.01 44 1003.9
20260505150529 47 261 10.0 20.0 0.00 0.03 0.01 45 1003.8
20260505140530 47 292 12.0 23.0 0.00 0.03 0.01 42 1003.3
20260505125033 48 270 10.0 18.0 0.00 0.03 0.01 43 1002.9
20260505124550 48 274 9.0 24.0 0.00 0.03 0.01 43 1002.9
20260505124032 47 268 13.0 24.0 0.00 0.03 0.01 40 1002.9
20260505123532 47 269 12.0 24.0 0.00 0.03 0.01 42 1002.8
20260505123058 47 271 13.0 24.0 0.00 0.03 0.01 42 1002.7
20260505122533 47 274 11.0 23.0 0.00 0.03 0.01 44 1002.6
20260505122033 47 277 14.0 23.0 0.00 0.03 0.01 44 1002.6
20260505121546 47 276 13.0 20.0 0.00 0.03 0.01 44 1002.6
20260505121033 47 301 10.0 21.0 0.00 0.03 0.01 42 1002.4
20260505120534 46 273 11.0 21.0 0.00 0.03 0.01 45 1002.4
20260505120046 47 327 10.0 21.0 0.00 0.03 0.01 42 1002.4
20260505115534 47 281 13.0 21.0 0.00 0.03 0.01 43 1002.3
20260505115034 47 253 12.0 24.0 0.00 0.03 0.01 45 1002.3
20260505114553 47 263 14.0 24.0 0.00 0.03 0.01 43 1002.3
20260505114034 46 263 9.0 23.0 0.00 0.03 0.01 47 1002.1
20260505113536 47 281 9.0 23.0 0.00 0.03 0.01 44 1002.1
20260505113045 47 262 11.0 23.0 0.00 0.03 0.01 40 1002.3
20260505112535 46 275 13.0 20.0 0.00 0.03 0.01 49 1001.9
20260505112035 46 300 8.0 21.0 0.00 0.03 0.01 46 1001.9
20260505111558 47 295 9.0 21.0 0.00 0.03 0.01 49 1001.9
20260505111033 46 257 12.0 21.0 0.00 0.03 0.01 46 1001.8
20260505110533 47 336 10.0 21.0 0.00 0.03 0.01 47 1001.8
20260505102035 45 286 13.0 22.0 0.00 0.03 0.01 53 1001.3
20260505101545 45 271 8.0 21.0 0.00 0.03 0.01 54 1001.4
20260505101034 46 270 10.0 21.0 0.00 0.03 0.01 55 1001.3
20260505100530 44 253 7.0 21.0 0.00 0.03 0.01 57 1001.1
20260505100043 45 276 12.0 21.0 0.00 0.03 0.01 57 1001.2
20260505095535 45 266 9.0 18.0 0.00 0.03 0.01 59 1001.1
20260505095029 44 282 9.0 18.0 0.00 0.03 0.01 55 1001.1
20260505094545 46 276 11.0 21.0 0.00 0.03 0.01 57 1001.0
20260505094031 47 285 13.0 24.0 0.00 0.03 0.01 58 1000.9
20260505093529 45 253 14.0 24.0 0.00 0.03 0.01 58 1000.9
20260505093040 44 282 15.0 23.0 0.00 0.03 0.01 58 1000.9
20260505092530 45 282 10.0 19.0 0.00 0.03 0.01 57 1000.8
20260505092034 45 248 12.0 19.0 0.00 0.03 0.01 60 1000.8
20260505091542 43 284 13.0 19.0 0.00 0.03 0.01 62 1000.7
20260505091029 43 255 11.0 20.0 0.00 0.03 0.01 62 1000.8
20260505090530 43 278 13.0 25.0 0.00 0.03 0.01 60 1000.6
20260505090050 43 280 12.0 25.0 0.00 0.03 0.01 62 1000.6
20260505085530 43 260 12.0 25.0 0.00 0.03 0.01 60 1000.6
20260505085030 43 266 13.0 20.0 0.00 0.03 0.01 61 1000.6
20260505084538 42 272 13.0 20.0 0.00 0.03 0.01 62 1000.6
20260505084029 43 247 14.0 20.0 0.00 0.03 0.01 60 1000.5
20260505083529 42 306 12.0 19.0 0.00 0.03 0.01 66 1000.4
20260505083046 42 272 12.0 19.0 0.00 0.03 0.01 63 1000.4
20260505082533 44 266 10.0 22.0 0.00 0.03 0.01 62 1000.3
20260505082031 44 272 10.0 22.0 0.00 0.03 0.01 64 1000.2
20260505081548 43 258 11.0 20.0 0.00 0.03 0.01 62 1000.2
20260505081030 42 267 11.0 23.0 0.00 0.03 0.01 68 1000.1